Погода в Шидловке

Россия / Белгородская область     50°31′27″N   37°37′49″E
темп.,
°C
ветер,
м/с
пор.,
м/с
влажн.,
%
обл.,
%
осадки,
мм/ч
давл.,
гПа
погр.,
м
27 октября, ср
ср2700:00+1юз384515 0.0 1031118
03:000юз384736 0.0 1030122
06:00−1ююз49495 0.0 1029141
09:00+2юз510405 0.0 1028278
12:00+8юз69360 0.0 1026738
15:00+10юз68220 0.0 1024977
18:00+5юз37360 0.0 102499
21:00+4зюз37460 0.0 1024126
28 октября, чт
чт2800:00+3зюз376690 0.0 1023138
03:00+3з358830 0.0 102391
06:00+3зюз3592100 0.0 102387
09:00+5зюз3881100 0.0 1022222
12:00+10зюз686180 0.0 1021588
15:00+9зюз51170100 0.1 1019678
18:00+8зюз51186100 0.5 1019496
21:00+8з4983100 0.5 1020394
29 октября, пт
пт2900:00+8зсз499285 0.1 1020342
03:00+7ссз389669 0.1 1022244
06:00+8с378696 0.0 1024329
09:00+10ссв4672100 0.0 1026830
12:00+9св4570100 0.0 1028597
15:00+9св3468100 0.0 1029475
18:00+7св33755 0.0 103137
21:00+5в22810 0.0 103214
30 октября, сб
сб3000:00+4в22850 0.0 103310
03:00+3вюв11855 0.0 103310
06:00+3вюв11865 0.0 103410
09:00+5юв237870 0.0 1035108
12:00+10ююв3457100 0.0 1035552
15:00+11юв234740 0.0 1034685
18:00+7вюв22580 0.0 103411
21:00+5юв22643 0.0 103520
31 октября, вс
вс3100:00+4ююв22691 0.0 103514
03:00+3ююв22740 0.0 103512
06:00+2юв22760 0.0 103412
09:00+4юв24690 0.0 1034126
12:00+10ююв45530 0.0 1033535
15:00+12юв34460 0.0 1031780
18:00+7вюв33610 0.0 103037
21:00+5юв33660 0.0 103037